Theta_e
311 311 311 311 310 310 310 309 309 308 308 303 300 302 293 291 288 299 302 303 300 293 286 291 290 288 290 294 294 296 295 294 295 295 297 294 297 294 293 293 292 293 292 293 293 294 291 293 292 294 295 297 298 299 300 302 301 301 299 303 300 315 295 293 295 296 298 300 300 301 302 304 301 301 301 299 296 296 295 290 288 291 289 291 290 290 288
311 311 311 311 311 310 310 309 309 309 307 303 303 296 292 293 292 294 301 303 299 290 284 284 286 288 291 292 292 295 294 294 292 292 294 293 293 292 293 294 296 293 296 295 292 296 288 295 295 293 296 295 301 300 298 302 299 299 297 301 307 296 297 293 289 288 290 295 297 296 300 300 298 298 301 301 301 299 294 294 292 293 291 291 288 288 292
311 311 311 311 310 310 309 308 309 309 308 306 302 294 295 293 294 294 297 301 297 288 292 288 286 287 288 289 288 290 292 295 294 294 292 295 294 293 292 294 294 294 296 294 295 296 294 292 297 295 296 296 301 299 298 301 300 304 312 314 307 296 295 294 289 286 285 285 286 289 292 296 297 298 300 301 300 298 294 294 292 289 291 292 288 288 289
311 311 311 311 310 310 308 309 309 309 308 308 301 298 294 289 283 291 291 294 294 293 295 292 288 287 287 286 287 290 288 293 295 295 294 295 294 293 294 295 295 293 293 291 292 292 295 292 291 293 293 294 297 298 298 300 300 310 314 311 305 298 299 296 294 292 291 293 293 294 299 296 296 297 298 299 301 301 299 293 290 291 288 292 290 293 296
311 311 311 310 310 309 309 309 309 309 308 307 300 297 293 293 286 286 284 291 291 290 291 289 290 286 290 282 287 286 288 291 292 296 290 295 293 293 293 293 290 290 291 290 290 292 292 293 293 293 291 294 295 298 298 299 305 311 306 307 302 297 294 296 296 296 297 298 298 299 300 298 298 297 297 298 298 299 298 295 294 293 290 291 293 294 296
311 311 311 310 310 309 309 309 309 308 307 307 302 292 295 286 290 292 293 287 283 286 286 290 289 290 289 286 290 287 287 288 287 293 294 294 294 290 292 293 292 291 290 291 287 289 289 291 289 292 292 292 294 293 297 297 304 304 298 302 298 295 292 296 297 297 298 299 299 300 299 299 299 299 298 297 298 298 297 297 295 296 295 294 294 296 296
311 310 310 310 309 309 309 309 308 307 306 305 301 292 295 293 292 292 295 287 289 289 289 291 289 287 288 288 289 287 287 286 289 289 290 291 291 292 286 289 291 291 292 290 288 288 284 286 291 289 290 290 290 289 293 298 299 297 296 298 298 296 291 296 298 295 297 298 298 300 300 298 297 298 299 299 299 298 298 299 297 297 297 297 296 297 297
310 310 310 310 310 310 310 309 308 307 305 305 299 297 291 289 289 287 294 292 290 290 290 289 288 285 290 285 286 287 287 286 288 290 289 286 289 293 289 289 291 291 291 290 287 289 290 289 287 291 291 290 292 290 291 292 296 296 294 296 298 296 292 301 297 294 294 297 299 299 299 299 297 296 298 299 300 299 299 299 297 298 298 296 295 297 298
311 310 310 310 310 310 309 309 308 307 306 299 297 296 297 295 297 296 289 286 289 290 290 287 286 284 286 285 287 288 288 287 289 288 292 289 288 290 289 291 290 291 291 290 290 293 292 292 292 293 292 288 293 290 291 295 291 294 294 296 297 296 291 297 294 291 291 296 297 298 299 298 297 297 296 297 297 297 298 297 297 296 296 296 294 293 295
311 310 310 310 310 309 309 308 308 306 306 300 299 293 300 299 302 299 293 285 291 287 288 287 287 282 286 288 288 287 287 290 291 286 292 293 294 293 292 292 291 289 289 288 291 294 295 295 296 296 296 296 296 296 295 295 293 292 293 295 293 295 293 292 291 289 288 294 296 296 297 295 293 295 299 299 298 298 299 299 301 301 300 297 294 295 297
311 310 310 310 310 310 309 308 308 307 304 300 298 296 298 296 294 295 294 285 287 288 287 286 285 287 288 289 287 290 289 289 290 284 286 292 292 295 294 292 289 288 288 292 298 299 299 299 299 299 297 296 296 296 296 297 297 296 294 294 295 296 294 292 294 287 290 294 295 296 293 287 290 301 302 301 298 298 296 296 297 300 301 298 300 302 300
310 310 310 310 310 309 308 309 308 307 305 303 303 299 300 302 298 295 290 284 285 288 286 284 285 287 287 289 289 288 287 288 289 292 288 290 292 294 293 293 292 286 295 301 301 301 300 300 299 299 297 296 296 296 296 295 296 300 299 295 294 294 294 292 294 289 288 293 294 289 286 289 299 300 303 303 302 300 300 299 301 310 312 307 303 302 301
310 310 310 311 309 309 309 309 308 307 306 304 303 298 302 304 297 294 292 287 284 286 285 286 289 289 289 289 289 289 291 291 292 292 292 291 291 293 294 292 292 295 301 298 300 298 293 291 293 293 293 294 295 295 295 295 295 298 299 300 296 293 293 293 292 291 292 291 289 283 286 294 301 303 301 303 302 301 307 309 312 314 314 308 302 301 303
310 310 310 309 309 309 309 309 308 308 308 306 302 302 303 302 296 294 292 287 286 288 289 288 288 288 288 289 288 289 290 289 290 292 289 293 291 292 294 296 296 299 299 300 298 295 290 290 286 288 288 291 292 291 294 296 297 297 298 299 300 298 296 294 290 293 286 288 288 289 295 297 301 303 302 301 299 305 304 300 306 315 316 311 307 311 314
310 310 310 310 309 309 309 309 308 308 308 306 302 301 301 302 301 296 297 292 285 288 290 283 287 288 289 289 289 287 287 288 288 288 292 294 292 295 296 298 300 299 298 295 292 294 290 289 284 282 285 284 280 283 293 292 298 299 300 300 301 300 295 296 291 289 292 288 287 289 290 289 295 300 305 304 308 310 308 308 306 312 317 317 314 314 314
310 311 311 311 310 309 309 308 308 307 307 306 303 301 301 303 303 301 297 292 289 282 287 292 292 290 288 289 290 288 286 287 288 288 288 290 292 294 297 299 300 299 298 298 294 292 291 286 283 283 279 282 287 287 289 298 298 299 300 300 301 305 306 301 294 290 292 290 286 286 287 289 296 302 306 308 310 310 312 306 301 310 316 317 318 317 316
310 310 311 311 311 310 309 309 309 308 307 306 302 302 301 305 302 299 296 294 291 286 293 293 293 292 289 288 290 288 290 287 287 285 285 286 290 292 295 298 299 299 298 295 292 291 289 287 288 285 287 290 287 286 294 296 295 298 303 306 306 305 302 299 294 291 291 289 287 286 292 297 307 310 313 314 310 313 307 295 296 309 317 318 317 317 318
310 310 311 310 310 311 310 309 308 308 307 307 304 301 301 304 304 302 298 294 290 290 293 295 292 288 287 289 287 291 292 291 290 291 289 290 291 291 293 295 293 299 301 292 292 288 285 286 283 284 282 290 292 293 286 293 294 295 296 298 298 301 302 300 292 292 292 295 288 290 295 308 310 313 314 316 315 307 298 292 302 314 317 321 319 322 321
310 310 310 310 310 310 310 310 310 309 308 306 304 302 301 303 303 302 297 295 292 287 294 298 297 293 295 296 293 293 293 291 291 287 287 287 290 295 294 294 297 290 295 291 291 288 287 286 291 287 285 289 292 287 294 294 291 301 302 299 300 300 301 300 301 297 296 293 290 289 294 305 313 315 316 316 306 297 293 299 310 321 322 323 325 324 325
311 310 310 310 310 310 310 310 309 309 309 307 304 300 301 303 304 302 297 293 295 291 294 295 295 292 296 293 290 289 291 291 292 289 288 284 293 294 290 286 295 294 291 294 287 291 288 285 287 290 287 288 291 300 293 295 303 299 298 302 301 300 300 296 297 300 300 297 291 290 290 302 314 315 315 313 302 298 309 323 326 327 325 324 323 325 325
310 310 310 310 310 310 310 310 309 309 309 308 306 301 299 303 303 304 303 298 294 290 292 298 298 296 296 294 295 295 293 289 290 288 290 290 293 291 281 283 288 290 287 290 284 286 288 286 287 287 291 289 291 293 288 293 296 305 304 301 302 307 300 296 300 304 296 296 293 293 305 309 316 314 306 312 316 316 325 325 323 323 325 324 324 324 325
311 310 310 310 310 310 310 310 309 309 309 308 307 302 299 302 304 304 304 303 296 293 294 298 299 298 299 300 299 299 297 296 297 297 292 289 292 291 291 292 291 293 294 296 291 291 292 289 291 287 285 289 294 289 294 288 288 298 304 304 294 305 303 304 294 307 302 298 304 311 314 314 316 316 316 319 323 324 325 326 325 323 322 326 325 325 327
311 311 311 310 310 310 310 310 310 309 309 309 306 301 298 300 299 305 303 298 300 300 301 299 300 300 302 302 304 303 302 302 300 299 298 292 290 292 290 290 290 295 298 298 291 291 292 290 287 289 286 288 287 290 293 292 293 299 292 301 306 313 313 313 310 306 313 314 314 317 315 315 315 317 316 316 318 322 322 323 321 321 323 323 325 326 327
311 310 310 310 310 310 310 310 310 310 309 309 308 302 301 301 300 300 301 300 296 292 296 298 293 290 292 294 299 303 305 303 302 301 302 299 290 291 294 295 296 295 296 299 303 296 294 293 291 291 285 291 293 288 288 290 294 300 301 301 305 310 314 312 306 309 298 290 309 312 313 314 314 314 315 316 316 316 319 319 320 320 322 322 323 324 324
310 311 311 311 311 311 310 310 310 309 309 309 308 307 305 301 300 302 297 291 293 291 286 291 293 297 299 301 302 300 301 303 306 305 302 300 297 292 291 296 299 295 293 298 301 298 298 290 291 290 285 293 295 286 296 294 294 303 295 300 302 302 313 309 309 306 299 299 308 313 316 318 316 314 311 311 313 315 316 316 317 318 318 319 319 320 320
311 311 311 311 311 311 311 310 310 310 309 309 309 302 300 300 301 303 302 300 298 294 287 287 292 300 300 298 297 300 303 302 302 301 302 302 301 300 298 299 298 300 298 301 303 298 296 294 293 291 287 289 300 291 290 297 297 304 299 295 305 307 312 302 309 304 307 312 313 314 316 316 314 315 313 311 311 312 313 314 314 315 315 315 316 317 317
311 311 311 311 311 311 311 311 310 310 310 309 307 304 302 302 303 301 299 298 292 289 291 287 292 297 299 296 300 302 302 301 301 300 300 300 300 301 300 298 296 296 295 295 301 300 297 295 293 289 292 292 297 294 295 295 297 298 298 306 311 307 303 308 308 301 301 303 307 312 305 304 310 314 315 313 311 310 310 311 311 312 312 313 313 314 315
311 312 311 312 311 311 311 311 310 310 309 309 308 305 303 301 303 303 304 302 295 289 290 290 290 294 300 296 301 301 301 302 301 300 299 300 300 299 299 298 297 294 294 293 291 294 294 290 289 296 297 298 295 293 300 302 303 299 300 303 309 305 306 307 302 301 301 310 313 314 312 311 312 315 318 318 315 311 309 308 308 309 311 312 312 312 312
312 312 312 311 311 311 311 310 310 310 310 308 302 301 302 303 304 305 305 305 303 297 294 294 297 295 288 292 300 299 301 300 299 299 299 299 299 299 298 297 296 296 296 295 294 294 293 293 297 294 293 302 297 292 297 289 291 289 300 307 310 311 314 312 311 312 313 315 314 316 313 310 314 317 318 318 318 314 312 312 312 312 311 311 311 311 311
312 312 312 312 311 311 311 310 310 309 310 305 302 299 295 298 303 303 305 305 304 301 293 290 286 290 298 297 296 298 299 301 301 300 299 298 298 298 298 296 296 298 296 293 294 291 293 294 296 300 303 307 298 298 294 292 292 296 305 308 310 312 313 314 316 313 310 316 317 317 317 316 318 319 318 318 318 316 314 314 314 313 314 314 312 312 312
312 312 312 312 311 311 311 310 310 310 308 304 300 293 288 284 294 308 308 307 306 301 296 294 289 295 293 297 297 296 299 301 300 300 300 300 300 300 300 298 297 298 293 293 294 294 296 293 296 300 307 306 302 297 295 293 290 295 305 309 310 310 310 311 313 317 319 317 318 318 318 317 318 319 317 317 316 315 312 313 316 319 316 314 313 313 313
312 311 311 310 310 311 311 311 310 310 306 303 298 295 293 292 299 307 309 308 305 299 294 289 288 289 289 294 298 302 302 302 301 302 301 305 299 300 298 297 295 297 297 293 295 295 294 296 297 299 298 304 304 299 299 296 293 294 304 309 311 311 312 312 315 319 320 318 314 312 311 313 315 314 313 316 316 315 313 312 313 315 318 317 316 317 317
311 310 310 310 310 310 311 311 311 309 305 306 308 308 308 307 307 308 309 307 303 298 298 291 287 290 288 292 299 300 302 301 301 301 298 303 299 298 295 299 300 300 312 299 295 293 298 299 303 299 303 309 301 300 297 294 295 301 307 309 311 311 311 313 315 316 316 316 315 308 307 309 312 315 317 317 316 314 314 313 314 315 316 315 315 315 316
310 310 310 310 310 311 311 310 310 309 309 305 300 302 306 308 308 307 308 305 300 300 298 291 288 288 289 299 292 296 303 297 296 299 295 303 305 302 299 299 298 297 303 297 298 295 297 301 298 299 302 301 304 299 292 296 302 305 308 309 311 310 310 311 312 313 314 315 315 315 314 314 315 315 314 314 314 315 316 315 315 313 312 312 312 313 314
310 309 310 310 311 311 311 310 307 305 301 302 302 305 308 310 309 310 308 302 294 292 292 293 293 288 288 290 288 293 303 301 296 300 298 301 308 301 302 297 298 294 298 302 294 295 295 298 304 298 294 303 300 293 295 301 304 307 308 308 310 310 309 308 310 313 314 314 314 314 315 315 313 312 312 313 314 315 315 315 315 314 312 311 312 313 314
310 310 310 311 311 310 308 308 306 303 300 300 302 309 312 312 312 310 308 306 301 295 293 293 294 289 290 285 286 295 304 298 301 302 302 301 302 305 305 301 293 299 307 297 292 297 296 305 302 293 301 296 292 294 299 305 304 305 306 306 307 309 308 309 310 311 312 313 313 313 313 313 312 311 311 312 313 314 314 313 312 312 312 311 312 314 315
310 310 311 310 309 306 301 302 306 304 303 306 311 313 313 311 311 310 306 303 306 305 295 293 289 289 291 290 295 299 301 291 299 298 300 299 297 303 302 297 292 300 297 295 296 296 302 310 300 295 295 294 298 304 306 306 307 306 307 308 309 312 311 309 310 310 310 310 311 311 312 312 311 311 311 311 311 312 312 312 312 311 310 311 314 314 314
309 309 307 305 301 297 296 300 303 306 313 312 313 308 305 305 297 299 300 296 301 302 297 296 289 291 299 294 288 301 300 296 301 295 298 302 298 297 303 297 297 299 290 294 299 307 303 301 297 295 297 303 305 306 307 309 310 311 311 312 312 314 313 310 308 307 307 306 307 308 310 310 310 311 310 310 311 312 312 313 313 314 314 315 314 315 315
308 306 305 303 298 296 296 300 307 311 308 309 309 301 299 302 298 294 295 297 299 293 299 295 290 295 295 293 294 303 299 296 294 298 293 301 298 292 299 291 297 297 288 293 298 308 295 295 293 292 291 298 302 304 310 311 311 313 313 314 315 313 313 311 310 308 308 308 309 310 310 308 309 310 312 312 312 313 313 314 314 315 314 314 315 316 316
303 299 297 298 298 301 307 307 309 306 305 301 302 299 293 299 293 288 300 292 290 295 297 289 297 297 297 294 294 295 306 299 293 294 295 298 306 294 297 295 297 295 288 290 295 306 293 286 288 288 288 296 298 307 309 310 310 311 313 314 315 314 314 314 314 315 315 314 315 315 315 316 315 313 313 314 314 313 314 314 315 316 316 316 318 315 314
299 299 297 295 299 302 304 305 305 303 300 295 296 298 295 288 295 298 295 290 288 292 300 297 300 298 301 300 299 294 306 309 305 306 302 295 305 303 296 293 301 293 289 289 300 299 291 287 287 285 291 300 304 307 309 310 310 311 313 314 314 314 315 315 315 315 314 313 313 314 315 316 315 315 316 316 315 314 314 315 315 315 315 315 315 315 316
300 300 302 304 305 305 305 303 301 295 297 299 293 287 290 293 297 295 296 287 291 298 299 299 294 297 299 302 301 303 303 310 306 304 300 295 303 299 296 298 299 291 286 296 302 295 292 285 286 290 299 302 306 308 308 308 310 310 311 312 314 314 313 313 313 314 315 314 313 314 314 314 315 315 316 316 315 315 315 315 314 314 314 315 316 316 316
307 306 305 302 302 298 300 288 293 296 286 288 288 286 292 288 292 291 294 299 305 298 299 308 304 307 308 309 304 306 304 309 302 300 298 294 302 301 296 292 292 286 292 302 295 289 287 285 286 294 301 303 306 307 308 309 310 311 311 312 312 313 313 313 313 313 314 314 313 313 314 314 314 316 317 317 316 316 316 316 316 314 315 315 315 315 315
305 306 301 297 293 293 297 286 296 295 290 288 287 285 289 288 292 295 292 294 299 298 302 299 300 301 297 307 303 302 305 305 307 303 300 303 299 296 294 287 289 299 303 292 289 285 285 289 293 299 302 305 306 307 307 309 309 310 310 312 313 312 313 313 313 313 313 315 314 315 315 315 315 315 316 315 315 314 313 315 316 316 315 315 315 315 316
297 290 288 288 287 289 291 287 291 287 285 289 290 290 291 287 291 293 293 300 301 298 302 303 302 302 300 306 307 305 305 299 307 300 295 299 295 295 292 289 298 297 290 285 288 287 287 290 300 302 303 304 305 307 308 308 309 309 309 310 311 312 312 311 311 311 311 311 312 313 312 312 312 311 312 313 313 314 312 311 312 313 313 313 314 314 315
294 292 288 285 285 288 287 285 286 287 290 292 291 292 290 292 294 295 300 302 299 300 300 301 302 303 301 305 300 299 303 303 299 299 299 299 292 288 298 303 300 290 288 288 286 286 290 295 299 301 304 305 306 307 308 308 309 312 310 308 309 310 308 308 308 309 309 309 309 308 308 309 308 309 309 310 311 311 311 311 310 310 311 311 312 313 314
291 295 287 287 285 285 293 288 288 290 293 293 295 294 294 296 297 297 298 298 298 301 302 303 302 303 299 300 301 302 302 303 298 300 301 292 292 296 301 295 287 289 286 286 288 291 294 298 302 304 306 307 307 308 308 309 309 308 308 308 309 308 309 309 308 307 308 308 308 308 308 308 308 309 309 309 309 310 313 312 311 311 311 310 311 312 312
292 292 289 287 286 288 289 291 295 296 297 295 296 297 298 298 297 297 301 302 302 302 301 301 300 298 298 303 303 297 298 299 297 295 300 297 297 293 288 291 291 293 293 291 292 296 298 301 303 305 306 308 307 307 308 308 309 309 308 307 308 308 309 309 308 308 308 308 308 308 308 308 308 308 308 308 308 309 309 310 311 311 310 310 310 310 309
296 289 289 288 291 291 292 295 293 293 299 299 301 301 300 299 299 301 304 305 302 301 302 300 301 298 294 297 295 294 292 296 290 288 295 294 290 287 288 285 287 287 294 297 297 299 300 304 306 307 307 307 307 307 308 309 309 308 308 307 307 307 308 308 308 309 309 308 308 308 308 309 308 308 308 308 307 308 309 309 309 309 310 310 310 309 309
290 289 293 288 292 295 298 297 296 296 299 300 300 300 300 299 299 302 305 304 303 301 300 301 300 295 292 294 288 289 289 295 295 291 292 290 292 294 292 288 291 291 294 299 300 302 305 306 307 307 307 308 310 308 308 309 310 309 308 308 308 308 308 308 308 308 309 309 309 308 308 308 307 307 307 306 307 308 308 308 307 307 307 308 308 308 309
292 289 291 297 295 294 296 295 295 294 297 297 298 299 299 299 299 301 306 305 303 301 298 293 292 290 289 290 288 287 289 298 295 293 292 291 295 294 291 290 293 297 299 302 303 305 305 307 307 307 307 308 308 309 309 309 308 307 308 308 308 308 308 308 308 308 307 307 309 313 308 308 308 307 308 308 307 307 306 308 308 307 306 306 307 307 306
289 291 295 299 300 299 298 297 297 297 297 299 299 301 301 299 301 303 306 304 302 298 295 296 292 289 289 289 292 296 297 294 290 293 291 295 298 294 293 295 297 300 301 302 303 305 307 307 308 309 308 309 311 310 310 311 310 308 308 308 308 307 307 307 306 306 306 306 306 306 306 307 307 308 308 307 306 305 304 304 306 307 306 305 305 306 306
Wind_Speed
21 21 20 19 18 15 13 11 11 11 11 4 5 4 3 3 8 11 16 11 9 5 2 4 6 6 7 11 9 11 6 6 7 10 9 10 3 3 4 5 5 5 3 2 4 4 5 5 8 6 5 8 8 6 19 17 12 9 5 12 2 8 4 8 12 5 6 6 5 4 6 11 11 10 8 10 13 12 11 6 7 7 2 3 2 9 5
21 21 20 18 16 13 11 10 9 9 7 3 5 3 4 5 8 6 4 9 6 4 6 6 7 7 8 9 9 8 7 8 11 8 11 5 7 4 4 3 1 4 1 0 3 3 4 2 8 4 7 3 11 13 21 15 9 8 4 3 7 4 4 7 5 5 7 8 5 5 1 3 5 7 12 15 12 10 3 5 2 6 9 8 7 16 0
20 19 18 15 13 11 9 8 7 7 5 3 3 5 5 7 4 5 6 5 3 5 3 5 7 8 10 11 11 11 8 7 9 12 10 9 6 8 3 4 7 5 3 3 2 2 2 4 2 4 5 6 7 10 19 12 7 6 10 9 7 5 5 3 12 15 13 12 14 14 12 11 3 5 11 14 16 12 6 12 2 8 3 7 7 4 5
20 18 17 15 12 9 8 8 6 6 3 4 1 3 4 4 7 4 4 5 5 4 4 5 8 7 9 11 6 8 10 10 10 9 9 5 10 6 8 6 4 6 9 5 5 4 3 3 5 7 6 7 4 9 14 10 8 15 14 17 7 3 3 6 8 11 15 11 1 2 5 3 12 10 8 10 14 17 13 5 6 13 4 8 7 6 1
19 19 17 15 12 8 7 7 6 5 1 0 0 2 1 3 2 5 7 6 3 6 3 6 8 7 10 5 6 9 10 10 7 7 5 10 11 9 3 6 9 7 7 7 6 4 9 7 5 2 9 6 7 11 6 11 7 21 11 18 6 2 3 6 5 8 14 10 12 9 12 12 11 11 12 8 11 14 18 14 14 8 9 14 5 7 6
20 19 18 15 12 10 8 7 6 3 3 1 0 2 2 2 2 3 2 3 6 10 6 9 10 9 9 5 6 8 9 8 7 7 2 12 8 8 4 8 11 10 6 7 3 6 6 4 6 7 3 10 12 10 6 5 12 17 11 9 4 3 3 6 5 11 12 13 15 12 9 11 10 14 13 14 13 12 19 19 8 14 12 15 6 8 7
20 19 18 17 12 11 8 7 4 2 3 1 1 3 2 3 3 4 3 1 4 3 10 13 11 11 9 5 6 7 9 11 8 7 8 7 7 6 7 10 12 13 12 6 4 4 7 1 3 4 8 7 10 8 7 3 11 11 11 11 4 2 5 4 7 13 15 14 14 15 16 8 7 13 16 16 16 17 18 17 11 16 11 8 12 12 15
19 18 17 17 13 11 10 6 4 1 4 1 1 3 2 3 2 3 4 3 6 7 6 6 7 8 11 5 6 6 4 9 12 9 9 8 6 3 5 13 12 13 12 7 6 6 7 7 9 7 7 9 2 5 3 5 3 10 8 7 5 6 6 10 9 9 12 12 11 14 16 15 12 7 10 15 18 18 17 15 12 10 11 5 7 9 12
19 18 18 16 13 11 9 7 5 4 4 1 2 2 3 2 0 2 4 6 5 4 3 5 6 6 6 3 7 7 7 8 8 12 12 12 10 5 9 11 12 8 9 11 10 9 8 6 8 10 8 8 2 3 2 6 11 9 9 2 4 3 5 4 4 8 9 7 6 15 15 13 13 13 11 14 16 18 15 13 8 10 13 7 5 6 7
19 18 17 16 14 12 10 6 4 4 6 2 1 3 0 0 1 1 1 3 5 6 4 5 4 5 4 4 9 7 10 11 8 8 7 7 3 7 10 10 8 10 8 11 13 9 10 13 12 9 9 9 8 9 11 6 7 4 6 6 6 1 4 6 6 8 6 9 11 11 13 9 11 18 22 17 12 8 7 7 11 17 15 12 12 12 7
19 18 18 17 14 12 13 9 6 5 4 3 3 3 3 3 3 2 2 4 3 4 4 5 4 4 7 8 10 9 11 13 4 2 5 7 12 9 10 10 6 7 9 9 9 11 13 13 14 10 9 12 14 12 13 13 13 11 6 3 2 3 4 6 3 4 9 17 16 11 6 12 18 16 10 12 12 12 10 8 8 11 15 8 9 13 9
19 18 18 17 16 13 9 9 5 7 7 4 2 4 3 1 3 3 3 4 7 3 3 6 6 9 10 11 8 11 13 13 11 4 10 10 12 11 9 8 3 5 6 6 11 13 15 13 12 10 11 14 17 17 18 17 14 12 12 12 9 8 5 8 3 3 6 9 10 5 9 14 12 6 10 13 13 12 15 9 5 3 2 0 0 1 3
19 19 18 17 16 14 11 10 7 3 8 3 3 4 2 2 3 2 2 5 7 6 8 8 5 10 12 13 12 11 11 12 12 13 10 11 11 9 6 5 5 8 11 13 13 12 9 10 11 11 13 12 15 18 19 18 17 16 13 14 12 10 8 5 3 5 5 4 3 3 7 8 3 2 6 11 10 10 10 2 0 1 1 3 5 7 5
19 19 18 18 18 15 11 8 7 6 4 5 3 4 4 3 3 2 2 3 7 4 3 9 9 9 7 7 8 10 10 12 10 9 9 6 9 12 12 7 6 8 10 10 10 7 5 2 5 4 4 4 4 9 13 19 19 17 17 17 15 16 7 5 7 4 5 5 5 8 6 5 2 2 2 7 8 9 14 7 1 1 1 3 7 4 3
19 19 18 17 17 14 11 7 6 5 5 4 3 3 3 4 4 3 2 3 7 8 5 7 5 7 10 10 8 9 9 9 9 8 7 8 8 6 7 10 9 9 10 6 2 2 4 2 2 3 6 3 5 5 6 8 11 20 19 19 17 12 12 8 8 5 7 7 6 4 2 8 5 7 4 7 14 17 10 10 2 2 2 1 5 8 7
18 17 17 15 15 15 12 11 4 2 4 3 2 3 4 4 4 5 4 5 4 8 4 7 6 7 8 9 9 9 9 7 7 9 10 4 5 9 9 7 8 9 6 1 2 2 2 1 3 2 4 3 6 6 5 3 4 12 21 19 16 11 12 11 11 8 4 4 3 3 3 6 7 3 6 4 10 11 9 8 9 2 1 2 3 6 7
18 17 17 17 15 14 13 10 8 3 4 5 3 3 4 4 4 4 5 4 5 9 5 10 10 9 7 7 4 4 2 5 6 8 8 7 7 9 11 8 6 4 7 3 2 1 1 2 2 2 5 5 5 4 4 2 1 2 3 6 8 3 2 6 9 10 7 4 4 5 4 0 9 12 14 18 7 12 10 12 9 4 1 0 2 6 10
19 18 17 17 16 14 13 12 10 9 4 7 4 4 3 3 5 3 4 5 5 7 6 9 8 5 5 3 7 6 5 6 6 5 7 8 8 7 5 6 8 5 4 5 2 1 2 2 5 5 7 5 8 9 7 4 4 3 1 2 1 1 4 2 10 11 7 7 6 4 6 1 11 12 17 16 14 4 15 14 7 5 3 0 3 5 4
20 19 18 18 16 15 14 12 11 11 9 2 3 3 5 5 4 5 4 5 5 7 2 3 3 8 8 6 9 8 6 9 9 7 6 8 3 2 7 9 4 3 3 2 3 2 2 3 1 3 3 5 5 4 4 5 5 2 2 1 2 1 1 3 4 2 2 2 3 7 4 1 13 21 20 10 2 8 10 4 2 11 6 3 3 10 6
20 20 20 19 17 16 14 14 12 10 9 4 5 4 4 3 4 7 5 5 4 10 8 8 6 13 8 7 8 7 5 6 6 6 6 9 2 10 9 5 2 3 4 2 3 2 2 2 1 3 5 5 4 3 4 5 2 4 2 2 1 3 3 2 2 3 0 1 0 2 3 1 19 24 17 5 3 6 8 9 7 5 9 8 4 8 5
19 19 18 19 18 17 16 15 13 12 10 7 5 3 4 3 5 5 6 7 5 10 8 5 8 12 10 11 12 12 10 12 8 7 7 8 3 3 5 2 1 3 3 3 5 3 1 2 2 3 3 5 5 4 3 3 2 2 4 1 2 4 2 3 2 1 2 2 0 1 3 12 16 12 5 9 6 8 5 17 10 3 7 8 9 5 6
19 18 18 17 17 17 17 16 14 12 11 9 3 2 6 4 4 3 5 7 7 10 8 6 7 12 15 14 13 12 13 15 17 11 9 9 4 6 7 9 10 2 2 2 3 3 1 1 1 2 6 6 5 7 5 3 6 3 2 2 2 2 3 2 4 1 1 4 2 5 9 11 11 10 7 6 8 10 11 5 14 13 5 4 10 10 8
21 21 19 19 19 18 17 16 15 13 12 10 4 4 6 3 2 3 2 6 6 8 8 10 9 11 12 14 15 16 15 15 16 13 10 9 10 7 9 9 9 4 4 4 5 5 3 2 3 2 6 5 5 7 8 6 3 1 3 4 2 2 5 3 3 1 1 1 2 7 8 11 15 12 9 11 11 10 10 5 11 5 6 4 10 10 11
23 24 24 22 20 19 18 17 15 14 13 12 6 4 5 4 2 1 3 5 7 9 8 8 3 7 7 10 8 8 12 12 13 15 11 10 9 9 6 8 5 4 5 8 7 5 2 2 4 3 6 4 5 8 6 5 4 2 0 2 2 6 4 3 4 2 3 2 5 9 10 13 15 13 11 12 11 9 7 7 7 8 8 9 8 9 10
27 25 24 22 21 21 18 17 16 15 13 13 10 4 4 4 2 4 4 6 3 3 8 6 9 15 14 12 11 9 9 10 9 12 11 12 14 11 13 7 6 7 8 4 2 1 3 3 3 3 9 3 4 7 7 3 2 1 2 3 2 3 3 1 3 5 6 4 5 9 7 7 11 9 9 10 10 10 10 8 6 7 8 9 8 8 10
27 25 25 24 22 22 20 17 16 15 13 13 11 4 4 6 3 5 4 5 5 5 7 7 8 1 1 5 10 10 7 7 9 11 11 13 17 17 16 10 8 7 7 2 3 5 5 5 3 5 6 5 1 6 5 5 7 4 3 4 3 3 4 2 2 4 4 5 3 6 5 6 11 13 11 8 7 8 10 10 11 11 14 13 13 12 9
24 24 24 23 22 21 19 17 15 14 13 10 6 5 6 6 6 7 6 4 4 5 6 9 7 6 1 11 14 11 9 8 9 10 12 12 13 13 12 12 12 9 7 7 5 5 3 3 4 7 5 7 5 9 8 9 4 3 2 3 4 4 3 2 1 7 5 3 0 5 4 4 9 11 11 10 8 9 10 11 13 12 12 11 12 11 10
26 24 24 23 21 20 18 17 15 12 9 9 8 6 5 7 8 9 8 8 8 6 4 7 8 11 11 15 9 6 9 8 8 9 9 11 12 12 13 14 12 10 7 5 5 4 3 5 9 4 5 7 8 6 4 8 5 6 5 3 2 2 2 1 2 5 5 4 5 6 8 3 6 8 9 8 7 7 11 11 9 10 9 8 9 10 10
24 21 21 21 20 19 17 15 13 11 9 6 3 5 8 10 10 8 10 9 9 7 8 10 10 8 5 10 15 11 7 5 7 8 8 10 11 11 12 12 11 11 8 6 7 5 5 7 4 5 6 3 6 8 4 2 2 3 1 2 1 1 3 0 3 6 7 8 6 4 2 7 2 7 7 7 6 6 11 10 9 9 8 8 9 8 8
24 23 21 19 17 17 16 14 11 10 6 1 1 1 4 5 1 4 7 9 7 4 6 5 7 5 4 4 10 10 12 10 6 8 10 9 9 9 10 10 9 10 8 7 5 7 6 5 5 6 7 4 5 5 6 2 4 3 3 3 0 2 3 3 2 2 5 4 7 5 3 7 4 6 5 5 6 7 9 10 9 9 9 8 9 8 6
23 20 19 17 16 15 14 13 11 8 5 3 2 2 1 1 1 0 8 6 7 5 3 3 7 7 8 5 6 11 11 11 10 8 8 8 8 9 8 7 6 6 5 5 5 8 3 4 5 5 3 6 6 5 3 4 2 4 2 2 2 2 3 3 2 1 6 7 8 7 3 3 1 2 8 6 5 5 8 7 9 10 9 9 9 7 7
21 20 19 18 16 14 14 12 9 8 5 7 8 6 6 4 2 3 7 7 5 3 3 4 6 3 4 5 3 2 6 12 9 4 3 1 4 5 4 7 5 6 5 5 5 2 4 7 5 4 5 5 4 4 3 5 4 4 4 3 3 2 2 1 1 4 7 7 11 10 5 1 3 3 3 5 5 4 7 8 7 8 9 8 7 8 9
25 25 20 17 16 14 14 12 11 8 6 7 11 14 15 13 7 7 7 3 1 3 1 2 4 4 4 5 8 7 2 5 3 4 4 1 2 1 1 1 2 2 3 3 2 3 2 2 2 3 4 1 3 2 2 4 4 7 4 2 3 3 2 3 4 5 6 4 1 7 10 4 2 3 3 3 2 1 8 9 7 8 10 12 12 11 11
25 26 25 19 16 14 11 10 9 6 4 4 7 9 11 15 14 17 10 4 3 1 1 3 4 4 5 3 5 7 2 4 4 3 3 3 3 2 2 2 3 0 1 2 1 1 3 3 3 5 5 4 2 3 3 4 8 7 1 3 3 2 3 5 5 6 6 5 3 5 7 5 4 4 5 4 4 4 3 6 11 13 10 11 11 9 6
24 24 23 19 14 6 2 6 4 5 4 4 6 7 5 7 7 8 11 7 4 3 4 3 3 5 4 2 3 5 2 0 3 2 2 3 3 2 3 3 3 1 3 1 2 2 2 2 3 5 6 4 2 1 3 6 4 3 1 3 4 1 2 7 6 8 9 8 8 7 6 5 6 5 4 4 5 5 8 8 6 10 12 9 8 7 7
23 23 20 16 5 6 4 4 2 3 3 4 6 3 7 7 7 7 9 7 2 1 2 2 2 4 3 4 4 3 4 4 3 2 1 1 3 1 1 1 3 3 1 1 3 1 2 2 1 5 4 3 2 4 4 6 6 5 6 6 4 3 5 7 9 12 14 14 13 12 10 8 6 4 4 5 5 5 6 7 6 6 10 9 6 5 6
24 20 16 9 3 1 1 2 3 4 4 4 3 5 9 8 5 5 3 2 1 0 2 2 5 5 4 3 2 3 3 4 2 2 1 0 2 1 1 1 2 1 2 3 2 3 2 1 2 5 4 5 5 5 5 6 4 3 6 5 1 3 6 7 8 15 18 16 15 12 10 10 8 6 6 8 7 8 9 8 6 6 8 7 5 6 6
22 16 4 2 1 1 0 1 3 3 7 9 6 2 1 1 2 2 3 3 2 4 4 3 6 3 1 3 5 3 0 3 1 2 1 0 1 2 0 1 3 0 3 3 2 1 2 1 2 4 3 4 5 5 6 4 4 3 0 4 4 3 4 3 7 14 15 14 12 12 12 12 11 8 7 9 9 10 8 6 5 5 5 4 4 5 7
9 3 1 0 1 2 1 2 3 12 8 2 2 1 1 1 1 1 3 2 1 3 2 4 5 4 4 5 6 2 3 2 4 2 1 0 1 2 1 1 0 1 2 2 1 1 3 2 4 4 3 7 4 5 1 2 4 6 7 6 6 7 8 9 10 14 14 11 9 8 8 10 9 7 6 7 7 8 9 9 7 7 7 7 6 5 7
3 5 2 3 1 3 3 3 7 5 1 1 1 1 2 1 0 3 1 1 1 2 2 5 3 4 8 9 5 4 3 4 3 1 1 2 1 1 0 1 1 1 2 3 3 4 3 3 3 3 3 4 8 5 6 6 8 7 6 7 8 8 8 10 10 9 11 10 9 8 7 8 9 8 6 6 7 9 9 8 8 7 7 8 7 7 5
2 1 2 2 4 4 5 8 5 1 0 0 0 1 0 2 2 2 1 2 3 3 3 3 2 3 3 4 3 6 1 2 3 2 1 3 1 0 1 1 0 1 2 2 3 3 2 2 4 3 5 5 5 8 5 8 10 9 7 6 7 8 10 10 10 10 10 10 9 9 9 8 8 9 7 7 6 6 7 8 8 6 7 8 8 7 5
2 2 5 5 5 5 5 2 0 1 1 1 1 2 2 3 1 0 1 0 3 1 2 3 3 2 3 4 4 2 2 2 1 1 1 2 0 0 1 1 1 2 3 3 2 2 3 2 4 4 8 8 8 10 13 13 11 10 11 9 9 10 12 12 12 10 10 10 9 9 9 9 9 9 8 6 5 5 5 7 9 8 7 6 7 8 8
12 7 1 2 2 1 0 2 2 1 2 3 2 3 2 2 2 3 3 1 0 0 2 2 3 2 1 1 1 3 2 1 1 1 0 1 0 0 0 1 1 2 2 1 2 3 4 3 5 7 9 11 13 12 12 11 10 11 11 9 10 11 12 13 13 13 10 10 11 10 9 9 8 6 7 7 7 7 7 7 8 7 7 8 8 8 8
1 1 0 1 1 2 1 2 1 1 1 1 2 4 4 5 6 3 5 5 3 3 1 5 6 6 4 1 0 0 1 1 1 1 1 1 0 1 2 2 3 2 1 3 3 4 3 3 3 3 9 9 11 11 10 10 10 11 12 11 10 12 11 9 10 10 9 8 10 9 8 7 7 8 9 9 8 7 6 6 6 7 8 9 9 8 7
2 4 3 3 1 3 2 2 1 3 3 3 1 2 3 6 9 7 6 3 0 9 7 3 4 3 4 2 1 0 0 1 1 0 3 1 3 2 3 2 1 2 3 2 3 2 1 6 8 9 10 10 10 10 9 10 9 9 8 8 9 8 8 11 11 10 9 8 7 6 7 7 8 9 10 9 7 6 6 6 5 7 8 8 8 9 7
3 1 1 3 5 3 2 1 2 5 1 2 1 4 6 8 5 9 7 2 6 7 8 8 6 4 4 1 2 2 1 1 1 2 1 1 3 4 1 1 0 2 3 3 4 7 8 9 8 9 10 8 8 7 6 5 4 3 4 7 5 7 9 9 10 10 10 8 8 8 8 9 10 11 10 8 7 7 7 6 6 7 7 8 8 7 6
1 1 2 1 1 2 0 2 2 1 3 6 6 4 6 9 8 8 7 3 7 7 7 5 4 3 2 4 2 2 1 1 2 1 1 4 2 1 1 2 4 3 3 5 7 7 8 10 10 9 8 8 7 8 8 8 7 7 7 7 10 11 11 11 10 10 8 8 10 10 10 10 10 11 10 10 9 7 7 7 8 8 8 7 6 7 7
1 1 1 3 2 1 6 3 2 5 3 4 6 5 6 4 5 8 6 3 6 4 4 3 2 2 2 2 1 1 2 2 2 2 1 0 1 1 2 3 4 4 4 5 7 6 8 9 10 9 7 6 7 9 10 10 11 12 11 11 12 12 12 12 12 11 11 11 10 11 11 11 11 11 10 10 10 9 8 8 8 8 9 9 10 9 8
2 1 1 1 1 0 2 7 6 8 10 9 8 9 10 9 9 8 9 6 6 5 2 2 2 1 2 3 2 3 4 4 4 3 3 3 3 3 3 3 4 6 5 5 6 7 9 9 7 8 10 11 10 8 9 9 10 11 11 11 10 10 11 12 11 11 11 11 11 11 11 10 10 11 11 12 11 9 8 9 11 10 9 9 10 10 9
2 2 2 3 4 4 6 5 5 10 11 11 11 11 10 9 10 10 8 8 8 5 3 2 2 4 1 2 2 3 2 4 3 2 4 6 5 3 3 7 7 4 4 6 8 8 8 7 6 9 8 8 11 11 9 9 10 10 10 11 11 11 11 13 13 12 11 10 11 11 11 11 11 10 11 10 9 9 10 10 10 10 9 9 9 10 9
1 2 1 0 4 4 6 9 10 9 12 11 11 10 9 9 10 10 10 7 7 5 7 5 3 3 3 4 3 4 2 3 3 5 4 5 4 4 4 7 5 7 9 7 7 7 7 6 6 6 8 8 7 7 8 8 8 9 9 10 10 11 11 11 12 12 11 11 12 13 12 10 8 8 8 10 11 11 11 10 9 9 10 9 9 10 10
3 4 5 6 6 6 6 2 1 4 5 7 8 9 8 11 11 9 9 6 10 12 9 4 3 3 3 6 3 0 2 2 3 5 5 4 3 3 5 7 8 6 6 5 6 6 6 6 6 8 7 8 8 7 8 7 9 9 9 10 11 11 11 11 10 11 12 11 11 10 9 9 10 10 11 12 11 11 10 8 8 9 9 9 8 9 9
Wind_Direction
327 327 326 325 323 319 319 322 324 325 343 340 337 305 311 276 263 291 290 292 332 358 79 34 23 5 336 332 331 329 327 312 334 335 343 331 269 255 237 244 265 256 277 322 321 353 303 289 256 265 269 283 50 16 14 351 359 352 11 357 336 247 198 201 237 276 262 250 237 239 221 201 209 214 194 178 207 202 211 181 186 180 228 210 257 248 263
332 331 329 326 320 317 319 320 324 325 358 330 314 311 307 299 291 319 282 302 315 45 32 4 349 336 332 352 324 319 322 342 343 335 331 330 327 327 311 306 45 310 19 219 280 18 344 27 35 346 21 294 19 27 8 3 350 359 11 327 350 358 242 187 209 237 252 248 297 287 232 169 212 201 207 209 204 199 185 113 74 195 205 174 147 240 147
335 334 331 325 322 318 323 320 318 326 343 354 329 327 310 289 234 218 291 318 352 49 9 47 335 341 343 342 336 345 347 329 323 320 310 300 303 310 296 334 330 303 1 326 352 318 273 305 360 353 293 315 347 16 2 334 329 333 334 354 328 212 283 246 207 211 211 208 209 209 213 214 203 221 216 207 199 189 147 216 176 209 264 158 202 246 250
338 338 339 336 331 324 324 319 318 321 355 349 354 302 316 352 324 316 337 335 346 62 348 48 349 332 343 342 319 353 324 327 327 337 311 356 352 324 299 294 287 9 5 6 341 319 333 8 309 332 336 337 352 6 340 337 303 348 350 358 339 274 245 232 250 233 228 223 191 222 143 141 214 213 204 215 206 190 191 118 176 215 190 198 221 169 224
341 342 344 344 341 331 323 319 316 336 84 9 268 291 233 282 290 313 344 327 42 347 4 4 359 343 333 322 304 331 312 312 322 346 306 356 347 320 302 17 32 356 14 351 325 341 341 327 310 350 328 330 295 325 308 319 337 360 355 354 329 337 314 273 285 272 268 240 205 194 177 209 212 201 213 206 204 198 197 192 220 133 118 233 204 207 198
342 344 345 347 346 336 327 323 328 357 144 28 344 315 276 328 274 339 343 307 312 340 339 348 326 321 327 283 303 303 311 338 331 335 12 332 352 349 307 19 0 358 350 337 337 319 329 305 318 330 318 317 327 336 2 290 6 1 350 346 348 293 258 294 298 306 304 273 237 205 188 200 192 200 198 202 207 197 207 211 188 159 196 223 166 187 191
340 342 344 347 348 341 331 330 345 350 139 146 114 312 271 237 290 286 322 342 304 301 289 312 315 320 317 292 295 302 334 325 327 342 314 330 320 3 313 335 338 336 339 339 283 336 339 357 311 344 316 336 333 326 348 7 6 358 342 339 324 279 245 256 337 311 301 280 247 229 210 205 190 200 197 198 202 211 210 212 191 186 208 195 180 188 206
340 340 341 344 344 336 331 323 319 28 136 130 290 220 270 291 337 302 341 260 279 277 282 294 315 309 310 323 284 312 335 308 320 330 322 313 286 352 351 320 330 326 326 323 299 287 269 288 305 300 315 309 292 300 250 293 1 347 327 328 324 26 291 334 329 322 302 285 249 231 227 217 219 213 206 202 202 211 211 206 202 208 224 203 190 188 223
339 340 339 342 342 339 343 346 322 146 133 248 226 287 193 260 175 290 304 301 279 269 294 306 306 295 303 295 303 332 308 309 325 300 292 279 286 335 334 316 319 311 320 313 295 284 293 303 291 292 280 274 292 313 286 353 317 333 319 315 318 353 270 318 336 329 308 304 241 228 228 226 225 226 214 208 208 210 208 204 183 181 211 205 174 214 242
341 341 341 340 341 342 344 356 336 180 180 201 247 260 167 325 245 217 249 282 298 317 278 274 296 285 267 303 317 319 296 298 314 317 286 281 293 323 318 314 309 309 318 304 294 313 319 301 291 285 276 264 266 250 260 264 260 283 275 285 277 230 306 322 320 316 259 285 319 274 229 219 242 231 219 205 203 210 212 208 179 198 194 203 205 222 208
339 342 342 344 342 343 345 353 348 179 157 215 227 247 248 265 298 297 228 267 261 208 279 261 222 278 312 306 303 298 294 302 307 241 294 313 306 315 314 310 308 283 282 281 314 313 295 289 287 276 254 255 260 258 260 249 242 238 250 280 247 226 254 267 329 290 287 295 303 298 225 214 226 225 204 192 197 192 205 217 204 213 195 211 206 209 215
338 340 340 341 340 340 339 330 351 186 196 222 215 261 272 293 273 243 265 286 288 305 269 276 281 287 286 292 296 292 292 295 303 252 269 292 301 308 304 297 270 286 277 306 318 312 303 287 279 268 241 245 253 255 251 246 239 229 231 233 254 256 260 270 247 253 279 293 310 293 216 224 239 116 175 192 189 182 200 209 203 224 348 147 237 223 183
337 337 339 339 339 339 338 338 336 222 207 221 219 253 266 176 248 242 249 261 276 295 294 285 276 276 281 287 284 290 299 303 297 298 290 293 299 299 287 274 261 284 314 306 306 308 305 294 290 275 264 240 239 242 244 238 233 231 234 222 230 248 240 257 245 232 275 291 236 223 237 235 311 274 195 167 162 180 138 87 355 33 278 187 198 217 217
334 336 337 339 341 340 340 346 341 330 220 196 222 239 251 224 228 249 232 265 278 265 283 293 283 270 276 286 304 299 303 297 293 287 289 287 294 291 288 279 284 301 295 294 289 272 290 339 313 312 278 221 220 238 226 229 222 216 230 237 226 235 232 205 271 193 237 230 255 233 271 288 227 168 196 168 166 172 171 174 275 300 264 182 177 179 171
335 335 337 340 339 345 346 339 337 330 320 204 212 243 246 246 249 248 241 243 273 285 273 276 284 300 305 299 304 308 303 300 308 299 283 282 269 262 281 296 298 294 294 280 272 247 220 262 311 338 306 279 243 247 198 220 198 208 216 230 237 224 223 201 206 247 195 244 292 299 229 234 239 242 253 195 175 175 160 124 265 285 313 180 161 145 152
335 336 333 336 335 339 343 339 349 272 274 198 189 233 247 212 232 244 242 257 301 288 229 235 269 298 304 298 295 286 291 298 301 305 304 277 261 288 290 286 291 298 309 239 224 219 221 182 245 237 247 272 281 269 235 207 228 195 206 218 236 233 227 222 194 235 207 232 238 252 214 245 212 250 318 267 185 164 126 156 213 265 192 313 146 128 146
334 334 334 331 331 334 338 339 324 240 264 175 205 238 258 187 210 242 249 240 223 249 294 302 295 289 296 291 293 255 275 297 328 314 307 309 313 310 300 312 309 337 347 315 280 275 255 207 240 244 279 298 289 241 243 230 249 274 166 177 213 238 257 186 204 231 223 224 248 256 226 243 18 345 345 324 298 144 129 186 238 242 45 299 123 129 130
331 331 331 329 329 330 327 334 328 317 232 193 207 234 258 201 204 237 245 242 263 269 243 245 252 262 244 238 282 280 280 275 268 260 267 289 301 303 314 335 330 349 302 296 273 352 228 209 241 232 250 235 270 288 245 203 176 225 262 110 115 55 308 175 206 218 219 210 249 280 291 353 354 342 334 316 313 206 176 206 207 183 138 100 155 108 113
327 327 327 326 327 327 324 325 327 323 326 239 198 260 255 228 201 197 236 254 234 259 162 253 260 260 259 270 261 271 259 271 277 281 287 296 257 296 334 301 299 303 350 300 304 247 237 239 246 281 269 264 228 233 251 218 191 235 313 197 126 263 277 326 28 28 142 196 195 224 248 200 345 340 325 289 115 196 205 237 158 127 125 96 121 102 93
323 324 324 323 323 322 320 320 320 318 312 210 183 242 249 214 197 192 221 259 245 266 266 253 242 255 250 239 257 255 266 254 237 254 261 268 348 350 335 334 7 299 308 291 249 214 265 294 43 316 261 270 264 296 297 276 297 161 199 263 221 188 181 191 209 233 201 79 15 236 211 297 357 333 334 27 27 254 164 120 78 106 121 118 81 93 103
315 315 316 317 317 317 317 316 315 314 313 299 177 248 271 211 223 207 209 235 266 288 282 221 233 243 250 249 243 246 246 253 249 245 247 258 301 353 282 268 90 37 309 348 316 311 335 288 30 300 303 298 290 287 236 249 251 198 118 149 248 206 173 181 234 237 106 31 355 233 321 308 320 330 298 319 290 273 172 125 118 111 124 121 104 71 95
303 304 304 306 309 309 311 312 311 308 304 306 254 182 262 235 215 199 197 208 248 248 266 280 280 271 261 254 254 246 244 247 251 244 266 277 241 228 265 286 277 223 251 308 290 284 195 63 275 280 299 291 281 248 275 218 219 189 113 129 250 262 205 200 151 235 150 162 280 339 327 309 305 311 304 289 345 10 322 112 129 138 126 133 109 117 104
296 297 296 300 306 306 303 304 305 305 302 298 276 197 247 272 247 228 179 259 239 255 264 271 264 265 267 259 246 242 240 239 249 253 236 244 271 250 240 251 262 214 220 193 231 271 303 139 260 243 266 234 262 278 242 210 258 156 163 251 269 281 257 290 90 166 213 91 201 293 310 327 337 338 359 5 8 2 1 16 98 63 103 120 123 123 120
297 297 298 299 298 302 300 296 295 298 299 295 278 222 256 225 217 184 237 241 264 286 274 239 269 265 235 265 266 215 222 231 226 233 220 197 235 263 244 230 232 261 234 221 184 205 230 196 251 220 253 257 298 266 232 215 223 254 158 172 218 252 280 221 116 184 76 316 316 320 330 339 343 339 2 27 22 14 16 22 52 91 96 91 82 105 106
304 303 301 299 296 294 296 293 290 286 287 292 293 260 259 251 196 194 246 284 269 288 294 301 242 248 259 260 273 264 235 230 224 223 216 201 208 224 248 221 168 223 252 235 113 215 231 243 273 256 280 240 251 271 282 263 167 12 175 192 128 258 273 277 122 104 111 170 284 298 327 350 347 348 10 22 20 28 28 35 38 64 74 78 84 88 84
306 306 303 300 297 295 292 290 287 283 278 279 285 257 231 247 185 184 198 241 259 265 275 275 280 110 173 281 265 254 259 250 244 242 226 211 210 218 241 263 251 234 266 266 161 223 241 250 223 251 273 290 215 293 289 306 296 304 181 254 246 273 291 198 226 116 116 103 242 316 346 4 350 359 10 19 28 40 39 36 43 46 54 56 54 51 60
308 306 305 302 298 296 291 287 284 279 276 268 259 242 242 247 201 194 209 217 278 273 231 256 276 289 283 281 279 287 271 250 246 234 239 233 226 222 229 245 255 257 248 262 236 245 246 232 234 252 227 255 279 266 273 282 257 254 216 210 222 231 220 249 95 90 93 120 217 358 62 341 324 357 354 1 15 47 51 43 43 39 49 53 65 55 51
310 310 309 307 304 299 295 289 284 276 263 265 270 257 240 247 232 206 204 192 196 239 296 287 294 295 304 272 265 259 270 259 237 239 232 232 221 217 220 229 236 252 247 232 255 220 209 241 253 246 252 269 280 265 233 261 261 267 235 233 212 214 179 141 131 129 127 135 121 96 106 61 328 346 354 353 352 49 61 55 48 42 42 50 68 77 66
311 308 307 307 306 301 298 293 283 276 271 266 269 283 276 248 246 213 201 192 197 240 259 273 276 281 280 304 309 299 270 228 246 239 237 236 231 219 218 217 220 228 237 229 237 236 228 237 239 253 256 287 289 275 277 273 242 241 248 303 307 283 302 202 79 98 109 143 144 157 170 121 24 16 357 358 346 38 61 57 57 57 54 57 66 62 80
307 305 301 298 295 295 295 289 278 269 263 158 90 320 310 314 156 171 184 180 183 217 252 290 304 286 297 291 286 288 299 299 262 248 242 236 232 223 218 212 222 224 215 221 189 239 230 246 234 230 241 195 248 292 285 290 288 269 263 274 97 335 347 16 71 119 137 160 128 102 107 115 127 101 66 22 6 44 61 54 51 55 49 55 65 62 52
300 298 305 300 293 285 282 279 268 248 209 163 134 247 342 301 294 85 152 165 163 202 258 241 260 303 301 237 246 281 289 296 296 287 262 242 233 230 228 200 226 198 215 222 216 238 223 246 259 264 268 225 215 247 260 274 280 269 336 29 33 10 336 322 290 216 124 133 115 109 97 100 146 95 80 60 32 48 66 51 53 62 68 64 59 61 58
303 307 310 306 298 284 272 264 251 231 190 190 196 181 187 185 190 129 127 136 148 222 245 304 300 259 270 286 266 277 297 287 279 275 267 220 257 225 222 180 218 187 193 208 224 240 228 231 226 257 274 270 250 258 264 284 287 259 302 42 46 31 323 352 146 120 113 124 121 93 78 18 318 318 175 123 90 56 77 78 62 61 66 73 73 63 58
311 313 313 310 301 280 260 247 237 214 199 226 261 278 277 260 188 139 141 149 247 236 166 236 247 301 273 286 317 301 252 311 319 329 306 263 264 326 333 227 197 167 216 246 237 224 237 201 162 256 273 275 271 255 250 227 254 280 278 53 41 59 43 67 79 95 99 94 76 140 156 178 121 57 28 51 11 76 93 81 69 66 59 54 49 46 45
313 313 314 315 309 295 259 226 210 208 221 234 247 240 242 247 246 235 217 192 247 213 207 237 262 251 269 348 320 286 335 355 301 332 315 326 330 25 301 353 356 343 318 249 284 332 320 347 311 297 308 251 209 275 292 282 249 238 222 64 54 72 83 71 75 95 88 89 82 93 114 123 95 70 63 57 64 2 25 91 91 72 56 55 49 45 41
311 311 312 318 324 326 217 178 160 182 219 229 249 257 252 242 209 192 183 155 156 213 210 228 232 270 296 250 247 270 342 56 253 282 283 305 355 19 341 47 338 340 284 92 349 263 309 275 295 296 271 265 246 308 259 234 145 110 54 52 16 322 82 78 66 96 92 86 75 68 74 91 105 102 99 93 71 58 52 30 34 94 87 72 68 54 53
314 312 309 319 40 102 91 127 159 157 213 231 231 253 228 249 230 172 169 185 212 160 213 251 234 252 276 296 312 311 356 289 261 272 248 274 332 14 354 4 343 257 244 112 248 293 252 227 222 272 304 316 242 224 289 6 52 64 85 76 15 352 69 96 106 95 88 79 73 68 60 54 62 75 75 68 68 64 67 74 51 50 83 83 76 80 70
313 311 313 311 146 225 97 173 175 205 205 229 229 126 114 105 81 104 125 209 235 231 253 252 251 238 200 263 291 275 5 305 327 328 311 278 257 324 4 36 247 277 21 281 245 256 233 101 243 278 279 286 314 331 353 342 7 52 85 98 127 343 64 74 91 93 86 80 77 74 72 67 54 41 63 67 67 65 63 56 49 63 78 87 86 75 73
308 307 312 1 45 26 343 270 189 235 284 277 186 174 205 161 168 179 155 191 211 187 209 221 250 267 218 224 248 237 28 273 306 290 313 228 281 244 264 242 251 294 268 279 250 164 277 281 347 324 332 356 333 345 339 336 11 360 302 110 85 87 107 106 85 87 88 85 80 80 78 68 56 34 45 59 62 66 59 54 58 58 62 67 68 73 72
311 299 45 44 67 282 207 259 359 337 314 248 162 274 238 180 227 252 194 204 172 216 179 218 249 217 211 225 251 196 203 288 331 271 294 226 283 292 183 251 275 248 290 288 342 359 303 48 20 350 334 320 301 297 329 112 46 38 48 65 80 80 80 76 75 86 92 98 101 93 96 99 87 55 31 56 55 64 69 60 42 45 65 68 67 68 73
32 12 4 321 242 251 303 351 355 330 352 62 143 251 283 205 123 273 216 165 278 210 187 243 224 221 202 221 242 288 154 174 217 291 257 249 163 247 237 239 246 248 318 358 350 18 26 337 319 326 283 270 272 303 73 77 74 51 37 49 64 69 70 81 81 76 81 78 68 59 56 72 84 81 46 37 55 65 62 62 64 56 61 74 79 68 57
29 342 352 287 282 317 311 322 332 95 66 54 13 224 307 296 219 216 309 246 221 238 184 224 216 244 209 224 209 250 204 207 256 242 258 273 155 258 266 348 258 63 3 5 18 53 21 329 323 319 289 338 15 15 32 85 76 64 48 47 62 64 72 72 75 78 77 74 72 67 63 65 70 76 62 46 46 53 62 71 69 66 68 69 70 70 71
273 266 267 293 286 279 299 274 218 10 326 185 84 291 209 232 233 43 157 175 284 289 221 172 232 228 246 197 205 217 253 188 242 248 286 310 162 63 330 314 20 30 35 355 4 6 320 356 340 351 349 353 10 22 40 52 53 53 43 43 63 73 73 76 75 67 73 76 71 72 69 67 62 61 62 60 56 53 61 67 67 63 66 66 66 61 56
285 279 194 296 296 310 233 5 308 84 55 350 5 343 346 351 330 334 311 246 234 294 255 183 237 247 258 84 244 182 254 108 218 258 352 262 358 78 63 35 3 30 7 251 14 335 8 4 353 349 360 11 15 30 42 47 55 55 52 51 63 69 76 75 70 69 63 77 80 77 74 65 56 68 73 64 62 56 44 50 60 63 58 62 61 59 56
180 160 319 313 7 291 45 333 282 15 9 87 35 340 319 324 329 343 303 311 320 278 261 335 332 353 343 218 328 336 204 239 200 246 227 244 301 340 46 44 18 335 36 34 17 20 351 286 254 347 19 12 20 22 31 36 51 62 58 48 52 58 53 68 80 83 88 90 91 92 92 99 95 82 74 65 49 52 50 48 47 61 65 66 62 55 52
50 358 14 358 12 287 33 330 343 91 21 347 3 287 322 321 312 322 304 306 241 286 311 308 308 331 318 325 151 234 358 342 231 11 5 351 53 360 33 25 354 19 32 28 21 319 345 15 27 29 24 22 21 25 31 40 38 49 59 56 35 33 55 60 66 71 71 69 81 88 86 83 78 70 66 68 72 58 56 61 52 64 62 65 63 59 50
63 130 38 31 342 336 73 279 329 349 343 139 226 253 273 270 269 284 274 276 290 301 311 318 322 308 292 309 62 330 328 305 13 28 351 348 57 25 352 258 22 43 38 43 40 45 50 45 32 30 21 17 19 12 6 351 339 347 29 42 16 60 75 77 75 72 70 68 64 64 64 65 68 73 73 61 55 61 54 52 48 61 64 62 59 62 55
33 356 87 131 94 287 52 352 333 235 276 297 282 241 237 271 271 268 274 281 267 269 286 280 257 268 325 339 1 3 346 319 46 346 69 45 32 287 303 36 29 17 32 22 33 43 40 34 40 35 23 15 20 27 27 37 44 50 48 47 52 54 55 58 58 59 60 61 60 57 54 55 56 58 59 57 47 41 43 52 56 60 66 71 68 65 60
19 258 84 43 339 332 360 313 278 292 271 247 274 288 276 278 307 317 306 232 237 290 311 344 12 352 12 300 61 356 330 348 23 347 11 169 239 44 14 31 35 27 17 20 32 44 51 43 42 40 28 22 32 35 31 31 38 43 47 49 50 52 54 57 57 55 54 57 57 56 56 55 55 56 57 59 54 42 43 52 57 62 67 65 62 58 58
142 78 52 218 243 167 268 291 350 10 346 341 340 352 351 355 339 330 336 331 346 342 330 61 341 51 13 329 34 0 21 339 33 327 346 9 41 18 20 41 4 50 27 0 49 50 52 46 37 38 34 35 29 31 34 34 40 49 50 54 55 58 58 56 54 55 54 53 54 56 56 57 58 59 60 58 58 49 49 58 60 58 59 67 67 64 59
54 350 30 22 346 342 310 276 360 10 356 2 2 356 345 351 350 343 345 353 342 326 350 37 26 86 324 19 14 10 27 341 36 345 23 28 22 9 21 53 34 31 42 31 43 40 47 40 37 48 36 29 31 25 18 22 39 50 50 55 56 57 55 56 52 48 48 52 55 56 54 54 54 57 65 71 70 63 54 50 52 56 53 52 61 61 58
347 98 48 251 65 323 333 15 355 351 359 358 353 352 346 354 350 338 340 343 334 15 44 35 351 35 10 15 14 28 349 319 20 13 22 24 352 15 24 46 40 33 37 23 21 29 33 20 29 36 34 33 27 18 16 20 45 49 49 55 60 61 58 56 56 54 49 47 50 53 51 52 57 66 68 67 65 63 57 47 44 52 55 51 51 60 60
28 23 359 329 1 9 360 293 12 12 344 343 356 348 358 11 347 334 321 355 19 38 18 338 37 23 39 37 3 314 306 23 22 345 26 24 344 34 35 42 45 28 21 17 20 14 26 31 33 41 38 31 22 20 27 30 51 49 47 50 55 55 55 53 53 55 55 50 49 53 51 50 55 57 58 57 54 53 49 41 32 43 51 51 48 51 55